Other Public Products
Issued by NWS Grand Forks, ND

Home | Current Version | Previous Version | Graphics & Text | Print | Product List | Glossary On
Versions: 1 2 3 4 5 6 7 8 9 10 11 12 13 14 15 16 17 18 19 20 21 22 23 24 25 26 27 28 29 30 31 32 33 34 35 36 37 38 39 40 41 42 43 44 45 46 47 48 49 50
000
FPUS83 KFGF 240131
OPUFGF
PRAIRIE TO PINES WEATHER ROUNDUP
NATIONAL WEATHER SERVICE EASTERN NORTH DAKOTA/GRAND FORKS ND
800 PM CDT SAT JUL 23 2016

 **SATELLITE DATA USED TO AUGMENT SKY COVER AT AUTOMATED STATIONS**
 *****  WEATHER ACROSS EASTERN NORTH DAKOTA  *****

CITY           SKY/WX    TMP DP  RH WIND       PRES   REMARKS
GRAND FORKS    PTSUNNY   71  68  90 W6        29.70F
GRAND FORKS AF MOSUNNY   70  68  95 W3        29.71F
GRAND CITY NWS   N/A     70 N/A N/A NW3         N/A
BUXTON           N/A     75  74  96 CALM        N/A
DEVILS LAKE    MOSUNNY   76  69  79 SW8       29.75S
FARGO          CLOUDY    74  71  91 NE3       29.70R
WAHPETON ARPT  CLOUDY    77  70  78 SE7       29.72S
$$

 *****  WEATHER ACROSS CENTRAL AND WESTERN NORTH DAKOTA  *****

CITY           SKY/WX    TMP DP  RH WIND       PRES   REMARKS
JAMESTOWN      PTSUNNY   77  69  76 NW8       29.77R
BISMARCK       SUNNY     82  54  37 NW8       29.82R
MINOT          SUNNY     80  55  42 W24       29.79R
MINOT AFB      MOSUNNY   76  58  54 NW14G25   29.77R
GARRISON         N/A     77  56  48 NW16G25   29.81R
WILLISTON      MOSUNNY   75  54  47 NW18      29.89R
DICKINSON      SUNNY     77  47  34 NW17G23   29.89R
HETTINGER      SUNNY     83  43  24 NW17      29.92R
$$

 *****  OTHER OBSERVATIONS NORTHEAST NORTH DAKOTA  *****

CITY           SKY/WX    TMP DP  RH WIND       PRES   REMARKS
WALHALLA       FAIR      73  68  83 SW7       29.69S
LANGDON        FAIR      72  70  94 SW9       29.73S
CAVALIER       MOCLDY    72  68  88 SW5       29.70R
GRAFTON        CLOUDY    72  70  94 SW7       29.71F
CANDO          FAIR      75  64  69 W10G16    29.76R
FORT TOTTEN      N/A     76  65  69 W2        29.95S
ROLLA            N/A     73  57  56 W13       29.75S
RUGBY          NOT AVBL
 ***** THE ABOVE OBSERVATIONS ARE NON NWS ARE NOT QUALITY
        CONTROLLED AND MAY MIS-REPORT RAIN FOR SNOW...
$$

 *****  OTHER OBSERVATIONS SOUTHEAST NORTH DAKOTA *****

CITY           SKY/WX    TMP DP  RH WIND       PRES   REMARKS
COOPERSTOWN    NOT AVBL
VALLEY CITY    CLOUDY    75  75 100 W9        29.78S
OAKES            N/A    N/A N/A N/A MISG        N/A
GWINNER        FAIR      81  73  78 W13G18    29.75R
BUFFALO          N/A     78  68  70 W6          N/A
WYNDMERE         N/A     81  75  83 SE5         N/A
 ***** THE ABOVE OBSERVATIONS ARE NON NWS ARE NOT QUALITY
       CONTROLLED AND MAY MIS-REPORT RAIN FOR SNOW...
$$

  *****  WEATHER ACROSS NORTHERN MINNESOTA  *****

CITY           SKY/WX    TMP DP  RH WIND       PRES   REMARKS
FLAG ISLAND    CLEAR     73  70  88 S3        29.68F
WARROAD        PTCLDY    73  70  88 CALM      29.70F
ROSEAU         CLOUDY    73  66  78 SW6       29.70S
HALLOCK        CLOUDY    72  70  94 S3        29.68F
THF RVR FALLS  CLOUDY    74  72  93 CALM      29.72F
HALSTAD        NOT AVBL
FOSSTON        CLOUDY    75  70  83 S6        29.72F
BAUDETTE       CLEAR     77  69  76 S5        29.71F
WASKISH        PTCLDY    77  68  73 S5        29.72S
CROOKSTON      MOSUNNY   75  73  94 NW8       29.71S
$$
  *****  WEATHER ACROSS CENTRAL AND WEST MINNESOTA  *****

CITY           SKY/WX    TMP DP  RH WIND       PRES   REMARKS
BEMIDJI        CLOUDY    75  68  78 S7        29.75F
PARK RAPIDS    CLOUDY    78  69  73 SE9       29.76F
WADENA         CLOUDY    75  70  83 SE8       29.76S
DETROIT LAKES  LGT RAIN  77  70  78 S9        29.75F
MOORHEAD       MOCLDY    81  73  78 S9        29.70S
FERGUS FALLS   CLOUDY    79  72  78 S9        29.73S
ELBOW LAKE     FAIR      78  73  86 E9        29.73F
MORRIS MN      PTCLDY    79  73  83 SE9       29.72S
STAPLES        CLOUDY    75  66  73 SE7       29.77F
WHEATON        LGT RAIN  82  77  83 SE8       29.72S HX  91
$$
  *****  WEATHER ELSEWHERE ACROSS MINNESOTA  *****

CITY           SKY/WX    TMP DP  RH WIND       PRES   REMARKS
DULUTH         MOCLDY    67  62  84 SE12      29.85F
INTRNTL FALLS  CLOUDY    74  65  73 SE10G18   29.76F
ELY            CLEAR     72  63  73 SE5       29.85S
CLOQUET        CLOUDY    66  61  82 E7        29.85S
BRAINERD       MOCLDY    74  68  81 SE5       29.80S
HIBBING        PTCLDY    70  65  84 SE9       29.82F
ALEXANDRIA     CLOUDY    77  71  82 SE13      29.77F
SAINT CLOUD    CLEAR     75  72  90 SE5       29.78R
MINNEAPOLIS    PTCLDY    75  70  84 SE8       29.78F
$$

  *****  WEATHER ACROSS SOUTH DAKOTA  *****

CITY           SKY/WX    TMP DP  RH WIND       PRES   REMARKS
SIOUX FALLS    PTCLDY    89  73  59 SW6       29.74S HX  97
BROOKINGS      CLEAR     87  78  74 S7        29.75R HX 100
WATERTOWN      PTCLDY    87  74  64 SE8       29.74R HX  95
HURON          PTSUNNY   87  74  64 N22G28    29.74R HX  95
SISSETON         N/A     82  77  84 S8        29.70R HX  90
ABERDEEN       SUNNY     83  69  62 NW15      29.76R
MITCHELL       MOCLDY    91  77  63 E5        29.71R HX 104
PIERRE         SUNNY     86  55  34 N14       29.82R
MOBRIDGE       SUNNY     85  55  35 N8        29.81S
RAPID CITY     SUNNY     85  43  22 N10G21    29.95R
$$

  *****  SOME WEATHER IN NEARBY STATES *****

CITY           SKY/WX    TMP DP  RH WIND       PRES   REMARKS
GLASGOW MT     SUNNY     77  49  37 NW18G26   29.95R
GREAT FALLS MT PTSUNNY   77  38  24 SW10      30.02F
CHEYENNE WY    CLOUDY    76  47  35 SE7       30.11F
SCOTTSBLUFF NE PTSUNNY   88  56  33 MISG      29.97R
OMAHA NE       PTCLDY    90  75  61 S14       29.76S HX 100
DES MOINES IA  PTCLDY    88  76  67 S7        29.80F HX  99
DAVENPORT IA   LGT RAIN  75  71  87 E9        29.89S
CHICAGO IL     LGT RAIN  72  69  90 E13       29.95F
EAU CLAIRE WI  CLOUDY    72  70  93 E8        29.83F
LA CROSSE WI   CLOUDY    75  68  78 SE5       29.83R
$$

  *****  SOME NATIONAL WEATHER *****

CITY           SKY/WX    TMP DP  RH WIND       PRES   REMARKS
LA GUARDIA NY  PTCLDY    90  55  30 NW9       29.83R
RALEIGH NC     PTCLDY    86  75  69 S5        29.96R HX  95
ATLANTA GA     CLOUDY    83  71  67 NW8       30.01S
NEW ORLEANS LA MOCLDY    87  76  69 CALM      29.93R HX  97
OKLAHOMA CITY  CLEAR     93  66  40 S8        29.87S HX  96
ALBUQUERQUE NM PTSUNNY   98  37  12 W3        30.01S HX  93
SALT LAKE CITY MOSUNNY   92  21   7 N10       30.02F
LOS ANGELES CA MOSUNNY   76  65  68 CALM      29.80F
BOISE ID       SUNNY     85  28  12 NW18      30.05F
SEATTLE WA     MOSUNNY   72  53  51 NW12      30.24F
$$

*** WEATHER ACROSS MANITOBA...SASKATCHEWAN AND ONTARIO ***
                ***ONTARIO***

CITY           SKY/WX    TMP DP  RH WIND       PRES   REMARKS
GERALDTON      CLOUDY    72  57  60 E6        29.94F
THUNDER BAY    MOCLDY    68  61  77 E7        29.89F
SIOUX LOOKOUT  CLOUDY    73  63  68 SE9       29.78F
TORONTO        PTCLDY    81  57  44 N12       29.95R
BIG TROUT LK   MOCLDY    70  55  60 SE9       29.83F
PICKLE LAKE    CLOUDY    70  55  60 SE7       29.84F
DRYDEN         CLOUDY    73  61  64 SE18G25   29.76F
KENORA         PTCLDY    72  66  83 SE10      29.70F
$$
                *** MANITOBA***

CITY           SKY/WX    TMP DP  RH WIND       PRES   REMARKS
BRANDON        MOSUNNY   73  59  60 W17       29.67S
DAUPHIN        MOSUNNY   70  64  83 W18G24    29.61R
ISLAND LAKE    CLOUDY    66  61  82 VRB2      29.73F
PILOT MOUND      N/A     73  68  83 SW9         N/A
THE PAS        LGT RAIN  64  61  88 N10       29.66S
THOMPSON       LGT RAIN  63  63 100 VRB2      29.72F
WINNIPEG       LGT RAIN  72  68  88 S9        29.67F
LYNN LAKE      CLOUDY    66  59  77 MISG      29.70S
CHURCHILL      PTSUNNY   64  59  82 SW7       29.68S
GILLAM         CLOUDY    66  59  77 S12G18    29.76F
$$
                ***SASKATCHEWAN***

CITY           SKY/WX    TMP DP  RH WIND       PRES   REMARKS
ESTEVAN        LGT RAIN  70  59  68 NW20G29   29.83R
KINDERSLEY     MOSUNNY   70  55  60 W7        29.91F
LLOYDMINSTER   MOSUNNY   68  50  52 W16       29.88F
PRINCE ALBERT  PTSUNNY   66  59  77 NE7G28    29.76R THUNDER
REGINA         MOSUNNY   70  59  68 NW16G30   29.82R
YORKTON        SUNNY     63  57  82 NW10      29.72R
N. BATTLEFORD  SUNNY     72  48  43 NW21G28   29.87R   C1F1C2F2C3F3C4F4C5F5C6F6C7F7C8F8C9F9CaFaCbFbCcFcCdFdCe!


USA.gov is the U.S. government's official web portal to all federal, state and local government web resources and services.